GFSCGP_850_temp_261.txt.gz
Temp
14 12 12 13 12 14 14 14 14 13 12 12 11 9 11 13 13 13 14 15 15 15 15 15 15 15 15 14 13 13 12 12 12 12 11 11 11 11 10 10 10 10 10 10
12 12 13 13 12 13 14 13 13 12 12 11 10 11 12 11 10 11 12 14 15 15 14 15 15 15 14 14 13 12 12 12 11 11 11 11 10 10 10 10 10 10 10 9
12 14 11 13 13 13 13 13 12 13 10 10 8 11 13 12 12 13 12 12 14 15 15 14 14 14 14 13 13 12 12 11 11 11 11 11 10 10 10 10 10 10 10 9
12 12 12 13 13 12 14 12 11 11 9 9 8 10 11 11 9 10 12 12 14 14 14 14 14 14 14 13 12 12 11 11 11 10 10 10 10 10 10 10 9 9 9 9
12 10 11 12 12 12 12 10 9 9 5 7 8 6 11 10 12 10 10 12 13 14 14 14 14 14 14 13 12 12 11 11 10 10 10 10 10 10 10 9 9 9 9 9
11 11 11 11 9 11 8 8 6 4 4 5 8 8 10 11 13 13 11 13 13 13 13 14 13 14 14 14 12 11 11 10 10 10 10 10 10 10 10 10 9 9 8 8
11 11 10 11 9 9 9 9 7 7 5 9 6 7 9 11 11 11 12 12 13 13 13 13 14 14 14 13 12 12 11 10 10 10 10 10 10 9 9 9 8 8 8 8
8 9 9 9 11 9 7 9 8 9 8 10 6 7 9 10 11 12 13 14 13 13 13 13 14 13 13 13 12 11 11 10 10 10 10 9 9 9 8 8 8 7 7 6
8 9 9 9 9 10 8 7 9 10 7 4 8 8 10 9 8 9 10 12 12 13 13 13 13 13 13 12 12 11 11 11 11 11 10 10 9 9 8 7 7 6 6 6
12 10 8 9 10 8 9 8 8 6 9 9 8 7 11 12 10 9 8 9 11 13 13 12 12 13 12 12 12 11 11 11 10 10 10 9 9 8 7 7 6 6 5 5
10 10 8 8 7 8 7 8 8 8 6 8 12 11 8 11 11 10 9 11 11 12 12 12 12 12 12 12 12 11 11 11 10 9 9 8 8 7 6 6 5 5 4 4
10 8 7 7 8 7 7 8 9 12 10 5 4 12 10 11 11 10 11 13 12 12 13 13 12 12 12 12 11 11 10 10 10 9 8 8 7 7 6 5 5 4 4 4
10 9 7 9 7 7 7 7 9 9 9 12 10 12 8 9 10 11 11 12 12 12 12 12 11 11 11 11 11 10 10 9 9 8 8 7 6 6 5 4 4 4 4 3
10 10 10 10 10 8 7 7 9 10 11 12 11 12 13 11 10 10 10 11 11 11 11 11 11 11 11 11 10 9 9 8 8 8 7 6 6 5 4 4 4 3 3 3
5 8 9 10 10 10 10 9 9 9 10 10 11 11 13 12 10 11 12 10 10 11 11 11 11 11 10 10 9 8 8 8 7 7 6 5 5 3 3 3 3 3 3 2
2 4 4 5 6 6 7 8 9 10 10 10 10 10 12 9 10 9 10 9 9 10 10 9 9 9 9 9 8 8 8 7 7 6 5 4 2 3 2 3 3 2 2 1
2 3 4 5 4 5 5 7 7 8 10 10 7 7 8 8 7 7 9 8 9 9 9 8 9 8 8 8 8 7 7 6 5 4 3 2 2 2 2 3 2 2 2 1
2 3 3 4 3 5 7 6 6 6 7 8 8 8 9 9 9 9 9 9 9 8 9 9 8 8 7 7 6 6 5 5 4 3 3 3 3 2 2 2 2 1 1 0
2 2 3 4 4 5 5 5 5 6 6 2 3 4 6 7 7 7 9 9 9 9 9 9 8 8 6 6 5 4 4 4 4 3 3 2 2 2 2 1 1 1 0 -0
2 2 2 3 4 4 3 1 2 5 4 1 1 2 3 4 4 4 9 9 8 8 8 8 7 6 5 5 4 4 4 4 3 3 2 2 1 1 2 1 1 1 1 0
2 2 3 3 3 2 1 1 3 3 2 -0 0 1 1 1 2 3 5 7 8 8 8 7 6 5 4 4 4 3 3 3 3 2 2 1 1 1 1 1 1 0 0 -0
0 1 2 2 2 3 0 3 2 2 1 1 1 1 2 2 2 2 3 4 5 6 6 5 5 4 4 3 3 3 3 3 3 2 1 0 0 0 0 0 0 -0 -1 -1
-0 1 1 2 1 3 1 2 3 2 1 1 1 1 1 2 3 2 2 3 4 4 4 3 3 3 3 3 3 3 3 3 2 1 -0 -0 -0 -0 -0 -0 -1 -1 -1 -2
1 1 -1 0 1 1 2 2 2 2 2 2 2 2 2 1 2 3 2 1 2 3 3 2 2 2 3 2 3 3 2 2 1 -1 -2 -2 -2 -2 -2 -2 -2 -2 -2 -2
-1 -0 -1 -1 1 1 2 1 1 1 1 0 1 0 1 0 1 1 1 1 1 1 2 1 1 2 2 2 2 2 1 0 0 -0 -3 -3 -3 -3 -2 -2 -2 -2 -3 -3
-0 -2 -2 -1 1 0 0 0 0 0 -0 -1 -2 -1 -1 -1 -1 -0 1 1 -0 0 1 2 2 1 2 1 1 1 0 -1 -1 -1 -3 -3 -3 -4 -4 -3 -4 -4 -4 -4

GFSCGP_850_temp_264.txt.gz
Temp
13 12 11 12 11 13 13 13 13 13 11 11 10 9 11 13 12 12 15 15 16 17 17 16 16 15 15 15 14 12 12 12 12 12 12 12 11 12 11 11 11 11 10 10
12 11 12 12 11 13 13 13 12 12 11 11 9 10 11 11 10 12 13 14 15 15 16 16 16 15 14 14 14 13 12 12 12 11 11 11 11 11 11 11 11 10 10 10
11 13 10 12 11 12 12 12 12 13 11 9 8 10 12 13 12 13 13 13 13 14 15 16 15 15 15 15 14 13 12 12 12 11 11 11 11 11 11 11 10 10 10 10
11 11 11 12 12 11 13 11 11 11 9 10 8 10 11 12 10 10 14 14 14 13 14 15 15 15 15 15 14 13 12 12 11 11 11 10 10 10 10 10 10 10 10 10
12 10 11 12 12 11 11 9 9 8 5 7 8 6 10 11 12 13 13 15 16 15 14 14 14 15 14 14 14 13 12 12 11 11 10 10 10 10 10 10 10 9 9 9
10 11 11 11 8 9 7 8 6 4 4 5 9 9 9 12 13 14 13 14 15 15 14 14 14 14 14 14 14 13 12 11 11 10 10 10 10 9 9 9 9 9 8 8
11 10 10 10 9 9 9 9 7 7 5 9 6 7 9 11 10 11 12 14 14 14 14 14 14 14 14 14 14 13 12 11 11 10 10 9 9 9 9 9 8 8 8 8
8 9 8 8 10 9 7 9 8 9 7 8 5 7 10 9 12 13 13 13 14 14 14 14 14 14 14 14 13 13 12 11 11 10 10 9 9 9 10 9 8 8 7 6
7 9 8 9 9 9 8 7 9 9 6 3 8 8 10 9 9 9 10 12 13 14 14 14 14 13 13 13 13 13 12 11 10 10 10 10 9 9 9 9 8 8 7 6
11 10 7 8 9 8 9 8 8 6 9 9 9 8 11 14 12 11 10 11 14 14 14 13 13 13 13 13 13 12 11 11 10 10 10 9 9 9 9 8 8 7 6 5
10 9 7 8 7 7 7 7 8 7 6 7 11 12 8 11 12 12 11 14 15 15 15 14 13 13 13 12 12 12 11 11 10 10 9 9 9 8 8 8 7 6 5 5
9 8 6 7 7 7 8 8 9 9 10 5 4 12 10 11 12 11 12 15 15 15 14 14 13 13 12 12 11 11 11 10 10 9 9 9 8 8 8 7 6 5 4 4
9 8 7 8 6 7 7 7 9 9 8 11 7 12 7 9 10 12 12 15 15 15 14 13 12 12 11 11 11 10 10 10 9 9 9 8 8 8 7 7 5 4 4 3
8 8 8 11 10 7 7 6 7 9 10 11 11 12 13 12 11 11 13 14 14 14 13 12 12 11 11 10 10 9 9 9 9 9 8 8 7 7 6 5 4 4 3 3
4 8 8 9 9 8 7 7 7 8 9 9 11 11 12 10 8 8 9 10 10 10 9 10 11 11 10 10 9 9 9 8 8 9 8 7 7 6 5 4 3 3 3 3
2 5 4 7 7 6 6 7 6 7 8 9 8 7 10 10 8 7 8 7 8 10 10 9 9 9 9 8 8 8 8 7 7 7 7 6 6 5 3 3 3 3 3 2
2 3 3 4 4 4 4 6 7 8 8 6 7 4 2 4 6 7 7 7 7 9 9 8 8 9 10 10 8 8 7 6 6 6 6 5 4 3 2 2 3 2 2 2
2 3 3 3 2 4 6 3 4 3 1 1 1 1 2 2 2 5 6 5 7 8 9 9 9 9 9 8 8 7 6 5 5 5 5 4 3 2 2 3 3 2 2 1
1 2 2 3 4 5 5 1 1 1 1 1 1 1 1 0 2 4 4 3 3 4 5 7 8 8 8 7 6 5 5 5 5 4 4 3 2 2 2 2 2 1 1 1
1 1 2 2 3 3 1 0 3 1 2 2 1 1 0 0 1 2 2 2 3 4 6 6 8 8 7 5 5 5 5 5 5 4 4 3 2 2 1 1 1 1 1 1
2 2 2 2 2 2 1 1 4 1 1 3 2 1 1 1 2 2 2 3 2 2 4 4 6 6 5 5 5 5 5 4 4 4 3 2 2 1 1 1 0 0 0 0
1 1 1 1 0 0 0 2 1 2 3 2 2 2 1 1 1 1 2 2 3 2 2 2 4 4 4 4 5 4 4 4 3 3 2 1 1 0 0 0 0 -0 -0 -1
-1 1 0 1 1 2 1 2 1 2 1 1 1 1 0 0 0 1 1 2 2 2 1 1 1 3 3 3 3 4 3 3 2 2 1 0 -0 -1 -1 -1 -1 -1 -1 -1
-0 1 -1 -0 1 2 2 2 2 1 1 0 0 -0 -1 -1 -1 -1 -0 0 1 2 1 -0 -0 1 2 2 2 2 2 2 1 1 -0 -2 -2 -2 -1 -1 -2 -2 -2 -2
-1 -1 -2 -2 -1 0 2 1 0 0 0 -0 -0 -2 -2 -2 -1 -1 -1 -1 -0 0 0 -0 -0 -1 0 1 1 1 1 1 1 0 -2 -3 -3 -3 -3 -3 -2 -3 -2 -3
-2 -3 -3 -3 1 -1 -1 -1 -2 -1 -1 -2 -2 -2 -2 -2 -2 -3 -2 -2 -2 -1 -1 -0 -1 -1 1 0 1 0 0 0 0 -1 -4 -3 -4 -4 -4 -3 -3 -3 -3 -3

GFSCGP_850_temp_267.txt.gz
Temp
13 12 12 12 11 13 12 13 14 13 11 12 11 10 12 13 12 12 15 15 16 16 18 17 17 16 16 16 15 14 13 13 12 12 12 12 12 11 11 11 11 11 11 11
11 11 12 11 11 13 12 13 12 12 11 11 9 11 12 12 12 13 14 15 16 16 16 16 16 16 16 16 15 15 14 13 12 12 11 11 11 11 11 11 11 10 11 11
11 13 10 12 11 12 12 12 12 13 11 9 8 12 14 14 11 13 15 16 16 17 16 16 16 16 16 15 15 14 13 13 12 12 11 11 11 11 11 11 10 10 10 10
10 10 11 12 12 11 13 10 11 11 11 12 8 13 12 13 12 11 17 18 18 18 16 15 15 15 15 15 14 14 13 12 12 11 11 11 11 11 10 10 10 10 10 10
12 10 11 11 11 11 11 9 8 8 6 8 8 10 13 12 14 16 16 16 16 17 16 15 14 15 15 14 14 13 13 12 11 11 11 10 10 10 10 10 10 10 9 9
10 10 10 10 8 9 6 8 6 4 6 7 10 11 12 13 15 15 15 16 15 15 15 15 15 15 14 14 14 14 13 12 12 11 11 10 10 10 10 10 9 9 9 9
10 10 9 9 8 8 9 9 9 8 6 11 6 7 12 12 12 12 13 15 15 15 15 15 14 14 14 14 14 14 13 12 11 11 10 10 10 9 10 9 9 9 9 8
8 9 8 9 10 9 7 10 9 10 9 10 5 8 12 10 12 14 14 12 13 16 16 16 15 14 14 14 14 13 13 12 11 11 10 10 10 10 9 9 9 9 9 8
8 10 8 8 8 9 8 8 9 10 6 5 9 9 11 10 10 12 11 12 15 16 15 15 15 14 14 14 14 14 13 12 11 11 10 10 9 9 9 8 9 8 8 7
10 10 7 8 9 8 9 8 9 7 9 9 8 9 12 14 13 12 11 12 14 15 15 15 14 14 14 14 14 13 13 12 11 11 10 10 9 9 9 8 8 8 7 6
9 9 7 7 7 7 7 8 7 8 7 8 9 11 9 12 12 13 11 12 13 14 14 14 14 14 13 13 13 13 12 12 11 10 10 9 9 9 8 8 8 7 7 6
9 7 6 7 7 7 7 8 8 9 9 5 5 11 10 11 9 10 11 12 13 13 14 14 14 13 13 13 12 12 12 11 10 10 9 9 8 8 8 8 7 7 6 5
8 8 6 8 7 7 7 6 8 8 8 10 8 12 8 10 11 10 10 11 12 12 13 13 13 12 12 12 12 11 10 10 9 9 9 8 8 8 8 7 7 7 6 5
6 7 8 11 9 7 7 6 6 9 10 11 11 12 12 11 8 7 8 8 9 10 10 11 12 11 10 10 10 10 10 9 9 8 8 8 7 7 7 7 7 6 5 4
4 6 7 8 8 8 7 7 7 7 8 9 10 10 9 2 4 5 6 6 7 8 8 9 9 10 10 9 9 9 9 8 8 8 7 7 7 7 6 6 6 5 4 3
2 5 4 6 7 7 6 6 6 7 8 8 8 8 1 2 2 3 3 2 3 3 4 6 8 9 9 9 8 8 8 8 7 7 6 6 5 6 6 5 4 3 3 3
2 3 3 4 4 4 4 4 5 6 1 3 4 1 1 3 2 2 2 2 2 2 2 4 4 8 9 9 9 8 7 7 6 6 5 4 5 5 4 3 3 2 2 2
1 2 2 3 3 4 2 1 2 1 0 0 0 2 3 2 1 4 4 2 2 2 3 4 4 5 6 7 8 8 7 6 6 5 5 5 4 4 3 2 2 3 3 2
1 2 2 3 3 4 1 0 2 2 1 0 2 2 2 1 1 3 3 2 2 2 2 3 4 5 6 6 6 7 5 4 4 5 6 4 3 3 3 2 2 2 2 1
1 1 1 2 3 3 1 0 1 0 2 1 1 2 1 0 1 2 2 2 2 2 2 3 4 5 5 5 5 5 5 5 5 6 4 3 3 3 2 2 2 1 1 1
2 2 1 2 2 1 1 1 1 0 1 2 1 1 1 -0 0 1 1 2 2 1 1 1 4 3 3 3 4 5 5 4 4 4 3 4 3 2 2 1 1 0 0 0
1 0 -0 -1 -1 0 0 2 1 2 2 1 1 1 0 0 0 0 0 1 1 1 1 1 2 3 1 1 1 4 5 4 4 3 4 3 3 2 1 1 0 -0 -0 -0
0 1 1 1 1 2 2 2 1 1 1 1 0 0 -1 -1 -1 -1 -1 -0 -0 0 0 0 0 2 1 1 -0 1 4 4 4 3 3 2 1 0 0 -1 -1 -1 -1 -1
-0 0 -2 -1 0 0 2 2 1 1 0 -0 -1 -1 -2 -3 -2 -2 -2 -1 -1 -0 -1 -1 -1 -0 0 -0 -1 -1 1 2 3 2 2 1 -1 -2 -1 -2 -1 -1 -1 -2
-1 -1 -2 -2 -1 1 2 0 -0 -1 -1 -2 -2 -3 -3 -4 -3 -3 -2 -2 -2 -2 -1 -1 -2 -1 -1 -1 -1 -2 -0 0 1 0 -1 -2 -3 -3 -2 -2 -2 -2 -2 -3
-2 -3 -2 -2 -0 -1 -0 -2 -2 -3 -4 -4 -4 -3 -4 -5 -4 -4 -2 -3 -3 -2 -2 -2 -2 -2 -2 -2 -2 -2 0 0 -0 -1 -3 -3 -3 -3 -3 -3 -3 -4 -3 -3

GFSCGP_850_temp_270.txt.gz
Temp
14 17 18 20 19 17 17 18 19 17 14 15 18 18 19 19 17 17 18 19 18 18 17 18 18 17 16 16 15 15 14 13 12 12 12 12 12 11 11 11 11 11 11 11
15 17 19 15 15 16 16 17 18 17 13 14 17 17 19 20 20 19 19 19 18 17 16 17 17 17 16 16 16 15 14 13 12 12 12 12 12 11 11 11 11 11 11 11
17 16 12 14 14 15 16 17 17 17 15 13 14 20 20 19 16 16 16 17 17 16 16 16 16 16 16 16 16 15 15 14 13 12 12 12 11 11 11 11 11 11 11 11
16 14 14 14 15 16 16 15 15 14 16 17 14 19 22 22 20 20 21 20 18 17 17 16 16 16 16 16 16 15 15 14 13 12 12 11 11 11 11 11 11 10 10 10
15 13 13 14 15 15 15 13 14 13 14 14 15 16 22 18 20 22 24 18 16 14 14 15 16 15 15 15 15 15 14 14 13 12 11 11 11 11 10 10 10 10 10 10
13 10 12 13 10 11 10 12 12 11 13 13 17 18 20 21 22 21 20 18 15 15 16 16 16 15 15 15 15 14 14 14 13 12 11 11 11 10 10 10 10 9 9 9
12 13 11 11 12 11 12 15 14 13 11 15 11 14 19 20 20 18 19 18 14 16 16 16 16 15 15 15 14 14 14 14 13 12 11 11 11 10 10 9 9 9 9 9
14 12 12 12 14 15 13 15 15 14 16 17 9 14 19 17 16 15 13 12 14 14 15 15 14 14 14 14 14 14 14 13 13 12 11 11 10 10 9 9 9 9 9 9
14 14 10 10 10 12 12 12 13 14 12 12 17 17 17 18 17 16 14 13 12 12 14 14 14 13 13 13 14 14 14 13 13 12 11 11 10 10 9 9 8 8 9 9
14 14 9 9 10 10 12 12 13 13 12 15 17 16 17 19 17 14 13 13 12 11 13 13 13 13 13 13 13 13 13 13 13 12 11 10 10 9 9 9 9 9 8 8
13 14 9 9 10 12 11 12 11 12 12 13 16 18 16 15 13 13 13 11 10 10 12 13 13 14 14 12 12 12 12 12 12 11 10 10 9 9 8 8 8 8 8 8
13 13 12 12 9 9 11 13 14 14 14 12 11 14 14 13 10 10 10 9 9 9 9 10 11 12 12 12 13 12 12 11 11 10 10 9 9 8 8 8 8 8 8 7
11 12 12 10 9 8 9 10 12 12 12 14 13 15 12 8 8 7 7 7 8 8 8 8 9 9 11 11 12 11 11 11 10 10 9 8 8 8 8 8 7 7 7 7
7 11 13 14 14 11 9 9 10 12 12 13 14 15 16 6 6 6 5 5 5 5 5 7 8 7 7 9 10 10 9 9 9 8 8 8 8 8 7 7 6 6 5 5
7 7 11 11 10 10 10 11 10 10 11 12 14 14 5 4 5 4 4 4 4 4 4 4 4 6 7 7 8 9 9 8 8 7 7 7 7 7 6 6 5 4 5 4
3 7 6 7 9 9 8 9 9 9 10 11 11 11 2 3 4 4 3 4 3 3 3 3 4 5 6 7 6 7 8 8 8 7 7 7 7 6 5 5 4 4 4 4
3 4 5 7 6 4 5 6 7 7 3 3 5 1 3 5 4 3 3 3 2 2 2 2 2 3 5 6 6 6 7 8 7 7 7 6 6 5 4 3 4 4 3 3
2 3 3 4 4 5 2 2 4 3 1 1 1 3 4 4 3 2 2 2 2 2 1 2 1 3 4 5 7 7 6 6 7 6 6 5 4 4 3 3 3 3 2 2
2 2 3 4 5 4 2 1 2 3 1 1 3 4 3 2 2 4 2 1 1 1 0 1 2 2 3 4 6 6 5 5 5 4 4 3 2 3 3 3 3 2 2 2
2 2 2 3 3 4 2 2 2 2 3 3 3 3 2 2 3 4 2 0 0 0 -0 0 2 2 2 3 4 5 4 4 4 3 2 2 2 3 3 2 2 2 2 1
2 2 2 3 3 3 1 2 1 2 3 2 2 2 1 2 1 1 0 -0 -0 -0 -0 -0 -1 -0 1 2 2 2 2 3 4 3 3 2 2 2 2 2 1 1 1 1
4 3 3 2 2 2 0 1 2 3 2 2 1 1 0 0 -0 -0 -1 -1 -1 -1 0 1 -0 -0 0 1 0 2 1 2 2 3 3 2 2 2 1 1 1 1 -0 -0
2 4 4 4 4 3 2 3 2 1 1 1 0 -0 -2 -2 -2 -2 -2 -2 -2 -1 -1 -1 -1 -1 -1 -0 -0 -0 1 0 1 1 3 3 3 1 1 0 0 0 -0 -1
2 1 2 2 2 2 1 1 1 0 -0 -1 -2 -3 -4 -3 -3 -3 -3 -4 -4 -3 -3 -2 -2 -2 -2 -2 -2 -1 -1 -0 -1 0 2 2 1 0 -1 -1 -1 -1 -1 -1
2 1 1 1 1 1 1 1 1 -1 -1 -2 -2 -3 -4 -4 -4 -4 -4 -4 -4 -4 -3 -3 -3 -2 -2 -3 -3 -2 -2 -1 -1 -2 -1 -1 -1 -1 -2 -2 -2 -1 -1 -2
-0 2 2 2 3 2 1 -1 -2 -2 -3 -4 -4 -4 -4 -5 -5 -5 -5 -5 -5 -5 -4 -3 -3 -2 -2 -3 -3 -2 -3 -2 -2 -2 -3 -2 -1 -2 -2 -2 -2 -2 -2 -2